This is the latest recevied weather packets stored in our database for station/object DK6GC-10. If no packets are shown the sender has not sent any weather packets the latest 10 day(s).
| Time | Temp. | Humidity | Pressure | Rain* | Wind** | Luminosity | Snow |
|---|---|---|---|---|---|---|---|
| 1777496419 | 13.89° C | 37% | 1023.1 hPa | - | - | - | - |
| 1777495518 | 13.89° C | 32% | 1023 hPa | - | - | - | - |
| 1777494618 | 14.44° C | 32% | 1022.9 hPa | - | - | - | - |
| 1777493718 | 14.44° C | 33% | 1022.6 hPa | - | - | - | - |
| 1777492818 | 14.44° C | 32% | 1022.6 hPa | - | - | - | - |
| 1777491918 | 14.44° C | 33% | 1022.4 hPa | - | - | - | - |
| 1777491018 | 14.44° C | 34% | 1022.3 hPa | - | - | - | - |
| 1777490117 | 14.44° C | 34% | 1022.1 hPa | - | - | - | - |
| 1777489216 | 14.44° C | 33% | 1022 hPa | - | - | - | - |
| 1777488316 | 15.56° C | 31% | 1021.8 hPa | - | - | - | - |
| 1777487416 | 16.11° C | 30% | 1021.5 hPa | - | - | - | - |
| 1777486516 | 16.67° C | 30% | 1021.2 hPa | - | - | - | - |
| 1777485621 | 16.67° C | 30% | 1021.2 hPa | - | - | - | - |
| 1777484721 | 17.22° C | 31% | 1021.1 hPa | - | - | - | - |
| 1777483820 | 17.22° C | 31% | 1021.1 hPa | - | - | - | - |
| 1777482920 | 17.78° C | 30% | 1020.9 hPa | - | - | - | - |
| 1777482020 | 18.33° C | 31% | 1020.9 hPa | - | - | - | - |
| 1777481120 | 18.89° C | 31% | 1021 hPa | - | - | - | - |
| 1777480220 | 18.89° C | 31% | 1020.8 hPa | - | - | - | - |
| 1777479319 | 19.44° C | 31% | 1020.8 hPa | - | - | - | - |
| 1777478419 | 19.44° C | 31% | 1020.6 hPa | - | - | - | - |
| 1777477519 | 20° C | 31% | 1020.5 hPa | - | - | - | - |
| 1777476619 | 20.56° C | 31% | 1020.6 hPa | - | - | - | - |
| 1777475719 | 21.11° C | 32% | 1020.6 hPa | - | - | - | - |
| 1777474819 | 21.11° C | 34% | 1020.5 hPa | - | - | - | - |
* Rain since midnight (hover to see other rain measurements)
** Current wind speed in m/s (hover to see current wind gust speed)